Showing default

FLOCK 4H 32, 66735

Orbit data source: Space-Track

FLOCK 4H 32, 66735 is a payload satellite owned by Planet (US) in SSO that was launched on Fri, 28 Nov 2025 UTC via an FALCON 9 launch vehicle from the Air Force Western Test Range (AFWTR). Payload-class satellites include a variety of spacecraft equipped with specific instruments for various scientific and technological missions. These include communications satellites like Starlink; space stations such as the ISS; scientific satellites like the Hubble; Earth observation satellites from companies like Planet Labs, Umbra, and HawkEye 360; GPS; miniature CubeSats for education and research; and military/defense satellites.

Loading next visibility...
Identifier
66735, 2025-276BX
Orbit
SSO
Country
Flag of USUS
Related business
Manufacturer
Planet
Mission
Operational Commercial Imaging
Bus & Motor
CUBESAT 3U, Unknown motor
Mass
5.7 kg wet, 5.7 kg dry
Launch date (UTC)
2025-11-28 (6 months ago)
Launch vehicle
FALCON 9
Launch site
Air Force Western Test Range (AFWTR)
Object type
Payload
Rocket body
Debris
Shape & HBR
Box + 2 Pan, 1.0 m
Radar Cross Section
0.072 m²

Expand to show TLE details & history
Last TLE update: 7 hours ago

TLE from 7 hours ago
0 FLOCK 4H 32
1 66735U 25276BX  26144.91592514  .00005221  00000-0  24945-3 0  9999
2 66735  97.4228 218.8540 0006333  92.0639 268.1321 15.19438432 26880
Epoch: 2026-05-24T21:58Z
TLE epoch observation values (Epoch: 2026-05-24T21:58:55.932Z)
Latitude
-0°
Longitude
6.60974°
Altitude
510.771 km
Speed
7.608 km/s
True Right ascension
14h 35m 24s
True Declination
0° 00' 00"
Sunlit
Object was in full shadow at epoch
Visualization orbit readout
Latitude
Unknown
Longitude
Unknown
Altitude
Unknown
Speed
Unknown
Apparent Right ascension
Unknown
Apparent Declination
Unknown
Sunlit
N/A
Visualization observer readout
Local Sidereal Time
13:55:02
Azimuth
Unknown
Elevation
Unknown
Doppler factor
Unknown
Orbital elements
Apogee altitude
508.863 km
Perigee altitude
500.145 km
Semi-major axis
6,882.641 km
Eccentricity
0.00063
Inclination
97.4228°
RAAN
218.854°
Arg. of periapsis
92.0639°
True anomaly
268.05957°
Mean anomaly
268.1321°
Eccentric anomaly
268.09583°
Mean motion
3.80111 °/min
Orbital period
94.71 mins
BSTAR
0.00024945
Loading maneuver chart data...
Computing Atmospheric mass density...
Loading historical data...
Loading historical data...
Loading historical data...
Loading historical data...
Loading historical data...
Loading historical data...
Loading historical data...

Documentation

Showing up to 5 results
|